DIRECTV 10 (31862 NORAD) Tracking and Keplerian Element Data

This shows tracking and keplerian element data for the satellite.

Feedback or suggestion? Click here.




ElementValue
Catalog31862
NameDIRECTV 10
Epoch Orbit4059
Epoch Day34.66324384
Epoch Year2025
RAAN328.8855
Inclination0.0089
Eccentricity7.21E-05
Argument of Perigee328.6413
Mean Anonmoly332.5055
Mean Motion1.00271839
Decay Rate-9.8E-07
L11 31862U 07032A 25034.66324384 -.00000098 00000+0 00000+0 0 9998
L22 31862 0.0089 328.8855 0000721 328.6413 332.5055 1.00271839 40597



Live tracking and technical data element details for DIRECTV 10 (NORAD 31862). DIRECTV 10 can be tracked NOW for your location showing map with azimuth and elevation plus other details from your city location.







IsCatalogInMostPopularTable: catalog: 31862, numindb: 557
Update: records affected: 1



GetName: 31862 DIRECTV 10

Hit Count: updated at: Thu, 22 May 2025 04:32:17 GMT